DNSO

Sadiq Abubakar III International Airport

Airport
ICAO code
DNSO
IATA Code
SKO
Summary
ICAO Region
AFI
ICAO Territory
Location

Sire, Sokoto State

Serving
Sokoto
Elevation
1010 ft
Coordinates
12° 54' 58" N , 5° 12' 25" E
KCC
Metar
Observation
DNSO 061500Z 07008KT 7000 NSC 37/08 Q1010
Station
Sokoto
Date/Time
2023-02-06 16:00:00
Wind direction
70°
Wind speed
08 kts
Lowest cloud amount
nil significant cloud
Temperature
37°C
Dew point
8°C
Humidity
17%
QNH
1010 hPa
Weather condition
n/a

Sadiq Abubakar III International Airport or Sultan Saddik Abubakar Airport (IATA: SKO, ICAO: DNSO) is an airport serving Sokoto, the capital of the Sokoto State in Nigeria.

Climatology

Warm Steppe climate (Köppen climate classification BSh)

Runways

Designator Length Width Surface Rops
8/26 3000 60 ASP No/No

Airport map

Aerial View

Airport accidents

SKYbrary Partners:

Safety knowledge contributed by: